Regional Weather Roundup
Issued by NWS

Home | Current Version | Previous Version | Graphics & Text | Print | Product List | Glossary On
Versions: 1 2 3 4 5 6 7 8 9 10 11 12 13 14 15 16 17 18 19 20 21 22 23 24 25 26 27 28 29 30 31 32 33 34 35 36 37 38 39 40 41 42 43 44 45 46 47 48 49 50
000
ASUS43 KDTX 232201
RWRMI
MICHIGAN HOURLY REGIONAL WEATHER ROUNDUP
NATIONAL WEATHER SERVICE DETROIT/PONTIAC MI
600 PM EDT THU MAR 23 2017

NOTE: "FAIR" INDICATES FEW OR NO CLOUDS BELOW 12,000 FEET WITH NO
SIGNIFICANT WEATHER AND/OR OBSTRUCTION TO VISIBILITY.

MIZ047>049-052>055-059>063-066>070-074>076-081>083-232300-
SOUTHEAST LOWER MICHIGAN

CITY           SKY/WX    TMP DP  RH WIND       PRES   REMARKS
ADRIAN         CLOUDY    42  24  49 SE15      30.29F
ALMA           CLOUDY    42  16  35 SE10      30.26F
ANN ARBOR      CLOUDY    40  18  41 E10       30.30F WCI  33
BAD AXE        CLOUDY    40  13  33 S13       30.32S WCI  32
CARO           CLOUDY    40  13  34 SE8       30.29F WCI  34
DETROIT CITY   CLOUDY    41  14  33 S12       30.34F
DETROIT        CLOUDY    42  11  28 SE12      30.33F
FLINT          CLOUDY    41   8  25 S14       30.30F
GROSSE ILE     CLOUDY    41  17  38 SE6       30.32F
HILLSDALE      CLOUDY    45  14  29 SE13G18   30.24F
HOWELL         CLOUDY    42   4  20 S14G20    30.28F

CITY           SKY/WX    TMP DP  RH WIND       PRES   REMARKS
JACKSON        CLOUDY    47  16  29 SE14      30.26F
LAMBERTVILLE   MOSUNNY   39  26  60 E8        30.32F WCI  33
LANSING        CLOUDY    45  11  25 S16       30.27F
LAPEER         CLOUDY    38  13  36 SE8       30.31S WCI  32
MASON          MOSUNNY   42  18  38 SE8       30.27F
MONROE         MOSUNNY   36  25  64 E7        30.32F WCI  30
MT. CLEMENS    CLOUDY    37  17  44 SE12      30.33F WCI  30
PONTIAC        CLOUDY    41   4  21 SE13      30.28F
PORT HOPE        N/A     36  19  50 SE10      30.31F WCI  28
PORT HURON     CLOUDY    39  10  30 SE9G17    30.35F WCI  33
TRI CITIES     CLOUDY    42  15  33 S8        30.29F
MIDLAND        CLOUDY    43  12  29 S8        30.27F
TROY           CLOUDY    42   6  23 SE7       30.33F
SAGINAW HB     CLOUDY    43   3  19 S14       30.28F
$$
MIZ043>046-050>051-056>058-064>065-071>073-077>080-232300-
SOUTHWEST LOWER MICHIGAN

CITY           SKY/WX    TMP DP  RH WIND       PRES   REMARKS
BATTLE CREEK   CLOUDY    47  16  29 S10       30.24F
BENTON HARBOR  CLOUDY    46  19  34 SE10G21   30.21F
BIG RAPIDS     CLOUDY    41   9  27 S7G20     30.21F
COLDWATER      CLOUDY    46  16  30 S10       30.24F
FREMONT        CLOUDY    44   8  22 SE9       30.20F
HOLLAND        PTSUNNY   47  12  24 SE15      30.20F
GRAND RAPIDS   PTSUNNY   48   9  20 S14       30.22F
IONIA          CLOUDY    45  14  29 SE14      30.23F
KALAMAZOO      CLOUDY    47  15  27 SE13G21   30.23F
LUDINGTON      CLOUDY    42  14  31 SE8       30.18F
MARSHALL       CLOUDY    47  13  25 SE12G18   30.24F
MOUNT PLEASANT CLOUDY    42  14  32 SE8       30.25F
MUSKEGON       PTSUNNY   44  14  29 SW6       30.20F
SOUTH HAVEN    CLOUDY    45  16  31 S12G18    30.21F
$$
MIZ016>042-232300-
NORTHERN LOWER MICHIGAN

CITY           SKY/WX    TMP DP  RH WIND       PRES   REMARKS
ALPENA         CLOUDY    35  21  56 SE8       30.29F WCI  29
BEAVER ISLAND  CLOUDY    37  15  40 S8        30.20F WCI  31
BELLAIRE       CLOUDY    39  11  31 S8        30.21F WCI  34
CADILLAC       CLOUDY    38  11  33 S10       30.18F WCI  30
CHARLEVOIX     CLOUDY    38  12  33 SE7       30.24F WCI  33
FRANKFORT      CLOUDY    40   8  27 S8        30.19F WCI  34
GAYLORD        CLOUDY    38  10  31 S10       30.20F WCI  31
GRAYLING       CLOUDY    37  10  32 SE7       30.22F WCI  32
HARBOR SPRINGS CLOUDY    38  11  32 S6        30.22F WCI  34
HOUGHTON LAKE  CLOUDY    38  14  37 SE10      30.22F WCI  31
MANISTEE       CLOUDY    41  12  30 SE6       30.18F
OSCODA         CLOUDY    36  23  61 E6        30.29F WCI  31
PELLSTON       CLOUDY    39   8  27 S6        30.23F WCI  35
ROGERS CITY    CLOUDY    37  19  48 SE9       30.27F WCI  30
TRAVERSE CITY  CLOUDY    41   9  26 SE7       30.19F
$$
MIZ007>008-015-232300-
EASTERN UPPER MICHIGAN

CITY           SKY/WX    TMP DP  RH WIND       PRES   REMARKS
KINROSS        CLOUDY    34  22  61 SE10      30.22F WCI  26
MACKINAC ISLAN CLOUDY    37  13  37 S6        30.22F WCI  32
NEWBERRY       CLOUDY    33  15  47 S10       30.18F WCI  25
S. S. MARIE    CLOUDY    35  19  52 SE10      30.23F WCI  27
MUNISING         N/A     35  20  54 S10       30.12F WCI  27
$$
MIZ004>006-011>014-085-232300-
CENTRAL UPPER MICHIGAN

CITY           SKY/WX    TMP DP  RH WIND       PRES   REMARKS
MANISTIQUE     CLOUDY    34  28  80 SE8       30.17F WCI  27
ESCANABA       LGT RAIN  34  27  75 S12       30.14F WCI  25
MENOMINEE        N/A    N/A N/A N/A MISG        N/A
SAWYER-GWINN   FRZ RAIN  32  25  74 S20G26    30.08F WCI  20
$$
MIZ001>003-009>011-084-232300-
WESTERN UPPER MICHIGAN

CITY           SKY/WX    TMP DP  RH WIND       PRES   REMARKS
IRON MOUNTAIN  CLOUDY    35  22  58 S9        30.05F WCI  28
HOUGHTON       CLOUDY    34  20  56 S15G24    29.98F WCI  24
COPPER HARBOR    N/A     35  22  58 SW13G23   30.01F WCI  26
IRONWOOD       LGT RAIN  39  22  50 S7G17     29.96S WCI  34
$$

ABBREVIATIONS USED IN REMARKS
   TC - TEMPERATURE IN CELSIUS
  WCI - WIND CHILL INDEX
   HX - HEAT INDEX
  VSB - VISIBILITY





USA.gov is the U.S. government's official web portal to all federal, state and local government web resources and services.